Time,TemperatureF,DewpointF,PressureIn,WindDirection,WindDirectionDegrees,WindSpeedMPH,WindSpeedGustMPH,Humidity,HourlyPrecipIn,Conditions,Clouds,dailyrainin,SolarRadiationWatts/m^2,SoftwareType,DateUTC
2013-02-24 00:00:00,33.5,32.7,29.90,West,273,0.0,0.0,97,0.01,,,0.05,0.00,VWS V14.01,2013-02-24 05:00:00,
2013-02-24 00:05:00,33.5,32.7,29.89,West,273,0.0,0.0,97,0.00,,,0.00,0.00,VWS V14.01,2013-02-24 05:05:00,
2013-02-24 00:10:00,33.4,32.6,29.89,West,273,0.0,0.0,97,0.00,,,0.00,0.00,VWS V14.01,2013-02-24 05:10:00,
2013-02-24 00:15:00,33.5,32.7,29.89,West,273,0.0,0.0,97,0.00,,,0.00,0.00,VWS V14.01,2013-02-24 05:15:00,
2013-02-24 00:20:00,33.5,32.7,29.88,West,273,0.0,0.0,97,0.00,,,0.00,0.00,VWS V14.01,2013-02-24 05:20:00,
2013-02-24 00:25:00,33.5,32.7,29.88,West,273,0.0,0.0,97,0.00,,,0.00,0.00,VWS V14.01,2013-02-24 05:25:00,
2013-02-24 00:30:00,33.5,32.7,29.88,West,273,0.0,0.0,97,0.00,,,0.00,0.00,VWS V14.01,2013-02-24 05:30:00,
2013-02-24 00:35:00,33.5,32.7,29.88,West,273,0.0,0.0,97,0.00,,,0.00,0.00,VWS V14.01,2013-02-24 05:35:00,
2013-02-24 00:40:00,33.5,32.7,29.88,West,273,0.0,0.0,97,0.00,,,0.00,0.00,VWS V14.01,2013-02-24 05:40:00,
2013-02-24 00:45:00,33.6,32.8,29.88,West,273,0.0,0.0,97,0.00,,,0.00,0.00,VWS V14.01,2013-02-24 05:45:00,
2013-02-24 00:50:00,33.6,32.8,29.88,West,273,0.0,0.0,97,0.00,,,0.00,0.00,VWS V14.01,2013-02-24 05:50:00,
2013-02-24 00:55:00,33.5,32.7,29.88,West,273,0.0,0.0,97,0.00,,,0.00,0.00,VWS V14.01,2013-02-24 05:55:00,
2013-02-24 01:00:00,33.5,32.7,29.88,West,273,0.0,3.6,97,0.00,,,0.00,0.00,VWS V14.01,2013-02-24 06:00:00,
2013-02-24 01:05:00,33.5,32.7,29.87,West,273,0.0,0.0,97,0.00,,,0.00,0.00,VWS V14.01,2013-02-24 06:05:00,
2013-02-24 01:10:00,33.4,32.6,29.87,West,273,0.0,0.0,97,0.00,,,0.00,0.00,VWS V14.01,2013-02-24 06:10:00,
2013-02-24 01:15:00,33.5,32.7,29.87,West,273,0.0,0.0,97,0.00,,,0.00,0.00,VWS V14.01,2013-02-24 06:15:00,
2013-02-24 01:20:00,33.5,32.7,29.87,West,273,0.0,3.6,97,0.00,,,0.00,0.00,VWS V14.01,2013-02-24 06:20:00,
2013-02-24 01:25:00,33.6,32.8,29.87,West,273,0.0,3.6,97,0.00,,,0.00,0.00,VWS V14.01,2013-02-24 06:25:00,
2013-02-24 01:30:00,33.6,32.8,29.86,West,273,0.0,3.6,97,0.00,,,0.00,0.00,VWS V14.01,2013-02-24 06:30:00,
2013-02-24 01:35:00,33.7,32.9,29.86,West,273,3.6,3.6,97,0.00,,,0.00,0.00,VWS V14.01,2013-02-24 06:35:00,
2013-02-24 01:40:00,33.7,32.9,29.86,West,273,0.0,3.6,97,0.00,,,0.00,0.00,VWS V14.01,2013-02-24 06:40:00,
2013-02-24 01:45:00,33.6,32.8,29.85,West,273,0.0,3.6,97,0.00,,,0.00,0.00,VWS V14.01,2013-02-24 06:45:00,
2013-02-24 01:50:00,33.6,32.8,29.85,West,273,0.0,3.6,97,0.00,,,0.00,0.00,VWS V14.01,2013-02-24 06:50:00,
2013-02-24 01:55:00,33.6,32.8,29.85,West,273,0.0,3.6,97,0.00,,,0.00,0.00,VWS V14.01,2013-02-24 06:55:00,
2013-02-24 02:00:00,33.6,32.8,29.85,West,273,0.0,3.6,97,0.01,,,0.01,0.00,VWS V14.01,2013-02-24 07:00:00,
2013-02-24 02:05:00,33.6,32.8,29.85,West,273,0.0,0.0,97,0.01,,OVC005,0.01,0.00,VWS V14.01,2013-02-24 07:05:00,
2013-02-24 02:10:00,33.7,32.9,29.84,West,273,0.0,0.0,97,0.01,,OVC005,0.01,0.00,VWS V14.01,2013-02-24 07:10:00,
2013-02-24 02:15:00,33.7,32.9,29.84,West,273,0.0,3.6,97,0.01,,OVC005,0.01,0.00,VWS V14.01,2013-02-24 07:15:00,
2013-02-24 02:20:00,33.7,32.9,29.84,West,273,0.0,3.6,97,0.01,,OVC005,0.01,0.00,VWS V14.01,2013-02-24 07:20:00,
2013-02-24 02:25:00,33.7,32.9,29.84,West,273,3.6,3.6,97,0.01,,OVC005,0.01,0.00,VWS V14.01,2013-02-24 07:25:00,
2013-02-24 02:30:00,33.7,32.9,29.84,West,273,0.0,3.6,97,0.01,,OVC005,0.01,0.00,VWS V14.01,2013-02-24 07:30:00,
2013-02-24 02:35:00,33.6,32.8,29.84,West,273,3.6,7.2,97,0.01,,OVC005,0.01,0.00,VWS V14.01,2013-02-24 07:35:00,
2013-02-24 02:40:00,33.5,32.7,29.84,West,273,0.0,7.2,97,0.01,,OVC005,0.01,0.00,VWS V14.01,2013-02-24 07:40:00,
2013-02-24 02:45:00,33.5,32.7,29.84,West,273,0.0,7.2,97,0.02,,OVC005,0.02,0.00,VWS V14.01,2013-02-24 07:45:00,
2013-02-24 02:50:00,33.5,32.7,29.84,West,273,0.0,7.2,97,0.02,,OVC005,0.02,0.00,VWS V14.01,2013-02-24 07:50:00,
2013-02-24 02:55:00,33.5,32.7,29.84,West,273,0.0,7.2,97,0.02,,OVC005,0.02,0.00,VWS V14.01,2013-02-24 07:55:00,
2013-02-24 03:00:00,33.5,32.7,29.84,West,273,0.0,7.2,97,0.02,,OVC005,0.02,0.00,VWS V14.01,2013-02-24 08:00:00,
2013-02-24 03:05:00,33.5,32.7,29.84,West,273,0.0,0.0,97,0.02,,,0.03,0.00,VWS V14.01,2013-02-24 08:05:00,
2013-02-24 03:10:00,33.6,32.8,29.84,West,273,0.0,3.6,97,0.03,,,0.04,0.00,VWS V14.01,2013-02-24 08:10:00,
2013-02-24 03:15:00,33.6,32.8,29.84,West,273,0.0,3.6,97,0.03,,,0.04,0.00,VWS V14.01,2013-02-24 08:15:00,
2013-02-24 03:20:00,33.7,32.9,29.83,West,273,0.0,3.6,97,0.03,,,0.04,0.00,VWS V14.01,2013-02-24 08:20:00,
2013-02-24 03:25:00,33.6,32.8,29.83,West,273,0.0,3.6,97,0.03,,,0.04,0.00,VWS V14.01,2013-02-24 08:25:00,
2013-02-24 03:30:00,33.6,32.8,29.83,West,273,0.0,3.6,97,0.04,,,0.05,0.00,VWS V14.01,2013-02-24 08:30:00,
2013-02-24 03:35:00,33.5,32.7,29.82,West,273,0.0,0.0,97,0.04,,,0.05,0.00,VWS V14.01,2013-02-24 08:35:00,
2013-02-24 03:40:00,33.5,32.7,29.82,West,273,0.0,3.6,97,0.04,,,0.05,0.00,VWS V14.01,2013-02-24 08:40:00,
2013-02-24 03:45:00,33.5,32.7,29.82,West,273,3.6,3.6,97,0.04,,,0.05,0.00,VWS V14.01,2013-02-24 08:45:00,
2013-02-24 03:50:00,33.5,32.7,29.81,West,273,0.0,3.6,97,0.04,,,0.05,0.00,VWS V14.01,2013-02-24 08:50:00,
2013-02-24 03:55:00,33.4,32.6,29.81,West,273,0.0,3.6,97,0.04,,,0.05,0.00,VWS V14.01,2013-02-24 08:55:00,
2013-02-24 04:00:00,33.5,32.7,29.80,West,273,0.0,3.6,97,0.04,,,0.05,0.00,VWS V14.01,2013-02-24 09:00:00,
2013-02-24 04:05:00,33.6,32.8,29.81,West,273,0.0,3.6,97,0.02,,-RA,0.05,0.00,VWS V14.01,2013-02-24 09:05:00,
2013-02-24 04:10:00,33.7,32.9,29.81,West,273,0.0,3.6,97,0.02,,-RA,0.05,0.00,VWS V14.01,2013-02-24 09:10:00,
2013-02-24 04:15:00,33.7,32.9,29.81,West,273,0.0,3.6,97,0.03,,-RA,0.06,0.00,VWS V14.01,2013-02-24 09:15:00,
2013-02-24 04:20:00,33.8,33.0,29.81,West,273,0.0,3.6,97,0.03,,-RA,0.06,0.00,VWS V14.01,2013-02-24 09:20:00,
2013-02-24 04:25:00,33.8,33.0,29.82,West,273,0.0,3.6,97,0.03,,-RA,0.06,0.00,VWS V14.01,2013-02-24 09:25:00,
2013-02-24 04:30:00,33.8,33.0,29.82,West,273,0.0,3.6,97,0.03,,-RA,0.06,0.00,VWS V14.01,2013-02-24 09:30:00,
2013-02-24 04:35:00,33.8,33.0,29.82,West,273,0.0,0.0,97,0.02,,-RA,0.07,0.00,VWS V14.01,2013-02-24 09:35:00,
2013-02-24 04:40:00,33.8,33.0,29.82,West,273,0.0,0.0,97,0.02,,-RA,0.07,0.00,VWS V14.01,2013-02-24 09:40:00,
2013-02-24 04:45:00,33.7,32.9,29.82,West,273,0.0,3.6,97,0.02,,-RA,0.07,0.00,VWS V14.01,2013-02-24 09:45:00,
2013-02-24 04:50:00,33.7,32.9,29.82,West,273,0.0,3.6,97,0.03,,-RA,0.08,0.00,VWS V14.01,2013-02-24 09:50:00,
2013-02-24 04:55:00,33.6,32.8,29.82,West,273,0.0,3.6,97,0.03,,-RA,0.08,0.00,VWS V14.01,2013-02-24 09:55:00,
2013-02-24 05:00:00,33.5,32.7,29.82,West,273,0.0,3.6,97,0.04,,-RA,0.09,0.00,VWS V14.01,2013-02-24 10:00:00,
2013-02-24 05:05:00,33.5,32.7,29.82,West,273,0.0,0.0,97,0.04,,-RA,0.09,0.00,VWS V14.01,2013-02-24 10:05:00,
2013-02-24 05:10:00,33.5,32.7,29.82,West,273,0.0,0.0,97,0.05,,-RA,0.10,0.00,VWS V14.01,2013-02-24 10:10:00,
2013-02-24 05:15:00,33.4,32.6,29.82,West,273,0.0,0.0,97,0.05,,-RA,0.10,0.00,VWS V14.01,2013-02-24 10:15:00,
2013-02-24 05:20:00,33.4,32.6,29.81,West,273,0.0,0.0,97,0.05,,-RA,0.10,0.00,VWS V14.01,2013-02-24 10:20:00,
2013-02-24 05:25:00,33.4,32.6,29.80,West,273,0.0,0.0,97,0.05,,-RA,0.10,0.00,VWS V14.01,2013-02-24 10:25:00,
2013-02-24 05:30:00,33.4,32.6,29.80,West,273,0.0,0.0,97,0.06,,-RA,0.11,0.00,VWS V14.01,2013-02-24 10:30:00,
2013-02-24 05:35:00,33.3,32.5,29.81,West,273,0.0,0.0,97,0.05,,-RA,0.11,0.00,VWS V14.01,2013-02-24 10:35:00,
2013-02-24 05:40:00,33.3,32.5,29.81,West,273,0.0,3.6,97,0.05,,-RA,0.11,0.00,VWS V14.01,2013-02-24 10:40:00,
2013-02-24 05:45:00,33.3,32.5,29.82,West,273,0.0,3.6,97,0.05,,-RA,0.11,0.00,VWS V14.01,2013-02-24 10:45:00,
2013-02-24 05:50:00,33.3,32.5,29.82,West,273,0.0,3.6,97,0.05,,-RA,0.11,0.00,VWS V14.01,2013-02-24 10:50:00,
2013-02-24 05:55:00,33.3,32.5,29.82,West,273,0.0,3.6,97,0.05,,-RA,0.11,0.00,VWS V14.01,2013-02-24 10:55:00,
2013-02-24 06:00:00,33.3,32.5,29.82,West,273,0.0,3.6,97,0.05,,-RA,0.11,0.00,VWS V14.01,2013-02-24 11:00:00,
2013-02-24 06:05:00,33.3,32.5,29.81,West,273,0.0,0.0,97,0.02,,OVC009,0.11,0.00,VWS V14.01,2013-02-24 11:05:00,
2013-02-24 06:10:00,33.3,32.5,29.81,West,273,0.0,3.6,97,0.02,,OVC009,0.11,0.00,VWS V14.01,2013-02-24 11:10:00,
2013-02-24 06:15:00,33.3,32.5,29.80,West,273,0.0,3.6,97,0.02,,OVC009,0.11,0.00,VWS V14.01,2013-02-24 11:15:00,
2013-02-24 06:20:00,33.3,32.5,29.80,West,273,0.0,3.6,97,0.02,,OVC009,0.11,0.00,VWS V14.01,2013-02-24 11:20:00,
2013-02-24 06:25:00,33.3,32.5,29.80,West,273,0.0,3.6,97,0.02,,OVC009,0.11,0.00,VWS V14.01,2013-02-24 11:25:00,
2013-02-24 06:30:00,33.3,32.5,29.80,West,273,3.6,7.2,97,0.02,,OVC009,0.11,0.00,VWS V14.01,2013-02-24 11:30:00,
2013-02-24 06:35:00,33.3,32.5,29.80,West,273,3.6,7.2,97,0.00,,OVC009,0.11,0.00,VWS V14.01,2013-02-24 11:35:00,
2013-02-24 06:40:00,33.4,32.6,29.80,West,273,0.0,7.2,97,0.00,,OVC009,0.11,0.00,VWS V14.01,2013-02-24 11:40:00,
2013-02-24 06:45:00,33.4,32.6,29.80,West,273,0.0,7.2,97,0.00,,OVC009,0.11,0.00,VWS V14.01,2013-02-24 11:45:00,
2013-02-24 06:50:00,33.4,32.9,29.80,West,273,0.0,7.2,98,0.00,,OVC009,0.11,0.00,VWS V14.01,2013-02-24 11:50:00,
2013-02-24 06:55:00,33.4,32.6,29.80,West,273,0.0,7.2,97,0.00,,OVC009,0.11,0.00,VWS V14.01,2013-02-24 11:55:00,
2013-02-24 07:00:00,33.3,32.5,29.80,West,273,0.0,7.2,97,0.00,,OVC009,0.11,0.00,VWS V14.01,2013-02-24 12:00:00,
2013-02-24 07:05:00,33.3,32.5,29.80,West,273,0.0,0.0,97,0.00,,OVC009,0.11,0.00,VWS V14.01,2013-02-24 12:05:00,
2013-02-24 07:10:00,33.3,32.8,29.80,West,273,0.0,0.0,98,0.00,,OVC009,0.11,9.00,VWS V14.01,2013-02-24 12:10:00,
2013-02-24 07:15:00,33.3,32.8,29.80,West,273,0.0,3.6,98,0.00,,OVC009,0.11,12.00,VWS V14.01,2013-02-24 12:15:00,
2013-02-24 07:20:00,33.3,32.8,29.80,West,273,0.0,3.6,98,0.00,,OVC009,0.11,16.00,VWS V14.01,2013-02-24 12:20:00,
2013-02-24 07:25:00,33.4,32.6,29.79,West,273,0.0,3.6,97,0.00,,OVC009,0.11,25.00,VWS V14.01,2013-02-24 12:25:00,
2013-02-24 07:30:00,33.4,32.6,29.80,West,273,0.0,3.6,97,0.00,,OVC009,0.11,21.00,VWS V14.01,2013-02-24 12:30:00,
2013-02-24 07:35:00,33.5,32.7,29.80,West,273,3.6,3.6,97,0.00,,OVC009,0.11,19.00,VWS V14.01,2013-02-24 12:35:00,
2013-02-24 07:40:00,33.5,32.7,29.80,West,273,0.0,3.6,97,0.00,,OVC009,0.11,18.00,VWS V14.01,2013-02-24 12:40:00,
2013-02-24 07:45:00,33.6,32.8,29.79,West,273,0.0,3.6,97,0.00,,OVC009,0.11,19.00,VWS V14.01,2013-02-24 12:45:00,
2013-02-24 07:50:00,33.6,32.8,29.79,West,273,0.0,3.6,97,0.00,,OVC009,0.11,23.00,VWS V14.01,2013-02-24 12:50:00,
2013-02-24 07:55:00,33.6,32.8,29.79,West,273,0.0,3.6,97,0.00,,OVC009,0.11,30.00,VWS V14.01,2013-02-24 12:55:00,
2013-02-24 08:00:00,33.7,32.9,29.79,West,273,0.0,3.6,97,0.01,,OVC009,0.12,32.00,VWS V14.01,2013-02-24 13:00:00,
2013-02-24 08:05:00,33.8,33.3,29.79,West,273,0.0,0.0,98,0.01,,-RA,0.12,35.00,VWS V14.01,2013-02-24 13:05:00,
2013-02-24 08:10:00,33.8,33.3,29.79,West,273,0.0,0.0,98,0.01,,-RA,0.12,33.00,VWS V14.01,2013-02-24 13:10:00,
2013-02-24 08:15:00,33.9,33.4,29.79,West,273,0.0,0.0,98,0.02,,-RA,0.13,46.00,VWS V14.01,2013-02-24 13:15:00,
2013-02-24 08:20:00,34.0,33.5,29.79,West,273,0.0,0.0,98,0.02,,-RA,0.13,47.00,VWS V14.01,2013-02-24 13:20:00,
2013-02-24 08:25:00,34.1,33.6,29.79,West,273,0.0,0.0,98,0.02,,-RA,0.13,47.00,VWS V14.01,2013-02-24 13:25:00,
2013-02-24 08:30:00,34.3,33.8,29.78,West,273,3.6,3.6,98,0.02,,-RA,0.13,49.00,VWS V14.01,2013-02-24 13:30:00,
2013-02-24 08:35:00,34.4,33.9,29.78,West,273,0.0,3.6,98,0.02,,-RA,0.13,46.00,VWS V14.01,2013-02-24 13:35:00,
2013-02-24 08:40:00,34.5,34.0,29.78,West,273,7.2,10.8,98,0.03,,-RA,0.14,54.00,VWS V14.01,2013-02-24 13:40:00,
2013-02-24 08:45:00,34.6,34.1,29.78,West,273,0.0,10.8,98,0.03,,-RA,0.14,51.00,VWS V14.01,2013-02-24 13:45:00,
2013-02-24 08:50:00,34.7,34.2,29.78,West,273,0.0,10.8,98,0.04,,-RA,0.15,58.00,VWS V14.01,2013-02-24 13:50:00,
2013-02-24 08:55:00,34.7,34.2,29.78,West,273,3.6,10.8,98,0.04,,-RA,0.15,67.00,VWS V14.01,2013-02-24 13:55:00,
2013-02-24 09:00:00,34.7,34.2,29.78,West,273,0.0,10.8,98,0.04,,-RA,0.15,76.00,VWS V14.01,2013-02-24 14:00:00,
2013-02-24 09:05:00,34.8,34.3,29.78,West,273,0.0,3.6,98,0.04,,,0.16,83.00,VWS V14.01,2013-02-24 14:05:00,
2013-02-24 09:10:00,34.9,34.4,29.78,West,273,3.6,7.2,98,0.04,,,0.16,69.00,VWS V14.01,2013-02-24 14:10:00,
2013-02-24 09:15:00,34.9,34.4,29.78,West,273,0.0,7.2,98,0.05,,,0.17,81.00,VWS V14.01,2013-02-24 14:15:00,
2013-02-24 09:20:00,35.0,34.5,29.78,West,273,3.6,7.2,98,0.05,,,0.17,81.00,VWS V14.01,2013-02-24 14:20:00,
2013-02-24 09:25:00,35.0,34.5,29.78,West,273,0.0,7.2,98,0.05,,,0.17,100.00,VWS V14.01,2013-02-24 14:25:00,
2013-02-24 09:30:00,35.1,34.6,29.78,West,273,0.0,7.2,98,0.06,,,0.18,84.00,VWS V14.01,2013-02-24 14:30:00,
2013-02-24 09:35:00,35.2,34.7,29.78,West,273,3.6,7.2,98,0.06,,,0.19,88.00,VWS V14.01,2013-02-24 14:35:00,
2013-02-24 09:40:00,35.2,34.7,29.78,West,273,0.0,7.2,98,0.06,,,0.19,88.00,VWS V14.01,2013-02-24 14:40:00,
2013-02-24 09:45:00,35.3,34.8,29.78,West,273,3.6,7.2,98,0.06,,,0.19,100.00,VWS V14.01,2013-02-24 14:45:00,
2013-02-24 09:50:00,35.4,34.9,29.78,West,269,3.6,7.2,98,0.07,,,0.20,98.00,VWS V14.01,2013-02-24 14:50:00,
2013-02-24 09:55:00,35.5,35.0,29.78,South,184,3.6,10.8,98,0.08,,,0.21,97.00,VWS V14.01,2013-02-24 14:55:00,
2013-02-24 10:00:00,35.6,35.1,29.78,South,184,3.6,10.8,98,0.08,,,0.21,107.00,VWS V14.01,2013-02-24 15:00:00,
2013-02-24 10:05:00,35.8,35.3,29.78,South,184,3.6,3.6,98,0.06,,,0.21,155.00,VWS V14.01,2013-02-24 15:05:00,
2013-02-24 10:10:00,36.1,35.6,29.77,ESE,105,10.8,10.8,98,0.06,,,0.21,149.00,VWS V14.01,2013-02-24 15:10:00,
2013-02-24 10:15:00,36.1,35.6,29.78,East,92,3.6,10.8,98,0.07,,,0.22,160.00,VWS V14.01,2013-02-24 15:15:00,
2013-02-24 10:20:00,36.1,35.6,29.77,East,92,7.2,14.4,98,0.07,,,0.22,156.00,VWS V14.01,2013-02-24 15:20:00,
2013-02-24 10:25:00,36.1,35.6,29.77,East,94,10.8,14.4,98,0.08,,,0.23,172.00,VWS V14.01,2013-02-24 15:25:00,
2013-02-24 10:30:00,36.2,35.7,29.77,East,94,7.2,14.4,98,0.08,,,0.23,167.00,VWS V14.01,2013-02-24 15:30:00,
2013-02-24 10:35:00,36.4,35.9,29.77,East,87,10.8,14.4,98,0.05,,,0.23,151.00,VWS V14.01,2013-02-24 15:35:00,
2013-02-24 10:40:00,36.5,36.0,29.77,East,94,7.2,14.4,98,0.05,,,0.23,155.00,VWS V14.01,2013-02-24 15:40:00,
2013-02-24 10:45:00,36.5,36.0,29.77,East,84,0.0,14.4,98,0.05,,,0.23,146.00,VWS V14.01,2013-02-24 15:45:00,
2013-02-24 10:50:00,36.6,36.1,29.76,East,84,7.2,14.4,98,0.05,,,0.23,165.00,VWS V14.01,2013-02-24 15:50:00,
2013-02-24 10:55:00,36.8,36.0,29.76,East,92,10.8,14.4,97,0.05,,,0.23,128.00,VWS V14.01,2013-02-24 15:55:00,
2013-02-24 11:00:00,36.8,36.0,29.77,East,91,7.2,14.4,97,0.05,,,0.23,104.00,VWS V14.01,2013-02-24 16:00:00,
2013-02-24 11:05:00,36.9,36.1,29.77,East,91,3.6,7.2,97,0.02,,,0.23,86.00,VWS V14.01,2013-02-24 16:05:00,
2013-02-24 11:10:00,37.0,36.2,29.77,East,91,3.6,7.2,97,0.02,,,0.23,81.00,VWS V14.01,2013-02-24 16:10:00,
2013-02-24 11:15:00,37.0,36.2,29.77,East,91,7.2,10.8,97,0.02,,,0.23,95.00,VWS V14.01,2013-02-24 16:15:00,
2013-02-24 11:20:00,37.0,36.2,29.77,East,91,0.0,10.8,97,0.02,,,0.23,111.00,VWS V14.01,2013-02-24 16:20:00,
2013-02-24 11:25:00,37.0,36.2,29.77,East,91,7.2,14.4,97,0.02,,,0.23,113.00,VWS V14.01,2013-02-24 16:25:00,
2013-02-24 11:30:00,37.1,36.3,29.77,East,91,0.0,14.4,97,0.02,,,0.23,91.00,VWS V14.01,2013-02-24 16:30:00,
2013-02-24 11:35:00,37.2,36.4,29.77,East,91,0.0,7.2,97,0.00,,,0.23,130.00,VWS V14.01,2013-02-24 16:35:00,
2013-02-24 11:40:00,37.3,36.5,29.77,East,91,7.2,7.2,97,0.00,,,0.23,144.00,VWS V14.01,2013-02-24 16:40:00,
2013-02-24 11:45:00,37.3,36.3,29.77,East,91,7.2,7.2,96,0.01,,,0.24,167.00,VWS V14.01,2013-02-24 16:45:00,
2013-02-24 11:50:00,37.4,36.4,29.76,East,91,7.2,10.8,96,0.01,,,0.24,153.00,VWS V14.01,2013-02-24 16:50:00,
2013-02-24 11:55:00,37.4,36.4,29.76,East,91,7.2,10.8,96,0.01,,,0.24,171.00,VWS V14.01,2013-02-24 16:55:00,
2013-02-24 12:00:00,37.5,36.5,29.76,East,91,7.2,10.8,96,0.01,,,0.24,197.00,VWS V14.01,2013-02-24 17:00:00,
2013-02-24 12:05:00,37.5,36.5,29.75,East,80,10.8,14.4,96,0.01,,,0.24,221.00,VWS V14.01,2013-02-24 17:05:00,
2013-02-24 12:10:00,37.6,36.6,29.75,East,82,7.2,14.4,96,0.01,,,0.24,279.00,VWS V14.01,2013-02-24 17:10:00,
2013-02-24 12:15:00,37.9,36.9,29.76,East,82,7.2,14.4,96,0.01,,,0.24,174.00,VWS V14.01,2013-02-24 17:15:00,
2013-02-24 12:20:00,38.0,37.0,29.76,East,82,7.2,14.4,96,0.01,,,0.24,221.00,VWS V14.01,2013-02-24 17:20:00,
2013-02-24 12:25:00,38.1,37.1,29.76,ENE,71,7.2,14.4,96,0.01,,,0.24,272.00,VWS V14.01,2013-02-24 17:25:00,
2013-02-24 12:30:00,38.3,37.3,29.75,East,96,7.2,14.4,96,0.01,,,0.24,199.00,VWS V14.01,2013-02-24 17:30:00,
2013-02-24 12:35:00,38.4,37.1,29.75,East,96,7.2,14.4,95,0.01,,,0.24,244.00,VWS V14.01,2013-02-24 17:35:00,
2013-02-24 12:40:00,38.6,37.3,29.75,East,96,7.2,14.4,95,0.01,,,0.24,260.00,VWS V14.01,2013-02-24 17:40:00,
2013-02-24 12:45:00,38.9,37.6,29.75,East,96,0.0,14.4,95,0.01,,,0.24,257.00,VWS V14.01,2013-02-24 17:45:00,
2013-02-24 12:50:00,39.1,37.5,29.74,East,96,3.6,14.4,94,0.01,,,0.24,195.00,VWS V14.01,2013-02-24 17:50:00,
2013-02-24 12:55:00,39.1,37.0,29.74,ENE,69,3.6,14.4,92,0.01,,,0.24,162.00,VWS V14.01,2013-02-24 17:55:00,
2013-02-24 13:00:00,39.1,37.0,29.74,ENE,69,7.2,14.4,92,0.01,,,0.24,148.00,VWS V14.01,2013-02-24 18:00:00,
2013-02-24 13:05:00,39.2,37.3,29.74,ENE,69,3.6,7.2,93,0.00,,-RA,0.24,141.00,VWS V14.01,2013-02-24 18:05:00,
2013-02-24 13:10:00,39.3,37.5,29.74,ENE,69,0.0,7.2,93,0.00,,-RA,0.24,176.00,VWS V14.01,2013-02-24 18:10:00,
2013-02-24 13:15:00,39.4,37.3,29.74,ENE,69,3.6,10.8,92,0.00,,-RA,0.24,186.00,VWS V14.01,2013-02-24 18:15:00,
2013-02-24 13:20:00,39.5,37.1,29.74,ENE,58,3.6,14.4,91,0.00,,-RA,0.24,158.00,VWS V14.01,2013-02-24 18:20:00,
2013-02-24 13:25:00,39.6,37.2,29.74,ENE,58,3.6,14.4,91,0.00,,-RA,0.24,158.00,VWS V14.01,2013-02-24 18:25:00,
2013-02-24 13:30:00,39.6,37.2,29.74,ENE,58,0.0,14.4,91,0.00,,-RA,0.24,132.00,VWS V14.01,2013-02-24 18:30:00,
2013-02-24 13:35:00,39.7,37.3,29.74,ENE,58,0.0,3.6,91,0.00,,-RA,0.24,90.00,VWS V14.01,2013-02-24 18:35:00,
2013-02-24 13:40:00,39.6,37.2,29.74,ENE,58,3.6,7.2,91,0.00,,-RA,0.24,69.00,VWS V14.01,2013-02-24 18:40:00,
2013-02-24 13:45:00,39.5,37.1,29.74,ENE,58,3.6,7.2,91,0.00,,-RA,0.24,98.00,VWS V14.01,2013-02-24 18:45:00,
2013-02-24 13:50:00,39.3,36.9,29.74,ENE,58,7.2,7.2,91,0.00,,-RA,0.24,125.00,VWS V14.01,2013-02-24 18:50:00,
2013-02-24 13:55:00,39.2,37.1,29.74,ENE,58,0.0,7.2,92,0.00,,-RA,0.24,132.00,VWS V14.01,2013-02-24 18:55:00,
2013-02-24 14:00:00,39.3,37.5,29.74,ENE,58,3.6,7.2,93,0.00,,-RA,0.24,111.00,VWS V14.01,2013-02-24 19:00:00,
2013-02-24 14:05:00,39.3,37.5,29.74,ENE,58,0.0,3.6,93,0.00,,OVC055,0.24,100.00,VWS V14.01,2013-02-24 19:05:00,
2013-02-24 14:10:00,39.2,37.3,29.74,ENE,58,7.2,10.8,93,0.00,,OVC055,0.24,97.00,VWS V14.01,2013-02-24 19:10:00,
2013-02-24 14:15:00,39.1,37.2,29.74,ENE,60,3.6,10.8,93,0.00,,OVC055,0.24,109.00,VWS V14.01,2013-02-24 19:15:00,
2013-02-24 14:20:00,39.0,37.2,29.73,ENE,60,0.0,10.8,93,0.00,,OVC055,0.24,113.00,VWS V14.01,2013-02-24 19:20:00,
2013-02-24 14:25:00,39.0,37.2,29.74,ENE,60,0.0,10.8,93,0.00,,OVC055,0.24,114.00,VWS V14.01,2013-02-24 19:25:00,
2013-02-24 14:30:00,39.1,37.5,29.73,ENE,60,0.0,10.8,94,0.00,,OVC055,0.24,102.00,VWS V14.01,2013-02-24 19:30:00,
2013-02-24 14:35:00,39.1,37.2,29.73,ENE,60,7.2,7.2,93,0.00,,OVC055,0.24,98.00,VWS V14.01,2013-02-24 19:35:00,
2013-02-24 14:40:00,39.2,37.3,29.74,ENE,60,0.0,7.2,93,0.00,,OVC055,0.24,86.00,VWS V14.01,2013-02-24 19:40:00,
2013-02-24 14:45:00,39.2,37.1,29.73,ENE,60,0.0,7.2,92,0.00,,OVC055,0.24,95.00,VWS V14.01,2013-02-24 19:45:00,
2013-02-24 14:50:00,39.3,37.2,29.73,ENE,60,3.6,7.2,92,0.00,,OVC055,0.24,93.00,VWS V14.01,2013-02-24 19:50:00,
2013-02-24 14:55:00,39.3,36.9,29.73,ENE,60,3.6,7.2,91,0.00,,OVC055,0.24,90.00,VWS V14.01,2013-02-24 19:55:00,
2013-02-24 15:00:00,39.3,36.6,29.74,ENE,60,0.0,10.8,90,0.00,,OVC055,0.24,67.00,VWS V14.01,2013-02-24 20:00:00,
2013-02-24 15:05:00,39.2,36.5,29.74,ENE,60,0.0,3.6,90,0.00,,OVC043,0.24,40.00,VWS V14.01,2013-02-24 20:05:00,
2013-02-24 15:10:00,39.1,36.4,29.74,ENE,60,0.0,3.6,90,0.00,,OVC043,0.24,35.00,VWS V14.01,2013-02-24 20:10:00,
2013-02-24 15:15:00,39.0,36.6,29.75,ENE,60,0.0,3.6,91,0.00,,OVC043,0.24,28.00,VWS V14.01,2013-02-24 20:15:00,
2013-02-24 15:20:00,38.9,36.5,29.75,ENE,60,0.0,3.6,91,0.00,,OVC043,0.24,26.00,VWS V14.01,2013-02-24 20:20:00,
2013-02-24 15:25:00,38.6,36.2,29.75,ENE,60,0.0,3.6,91,0.00,,OVC043,0.24,25.00,VWS V14.01,2013-02-24 20:25:00,
2013-02-24 15:30:00,38.3,35.9,29.75,ENE,60,3.6,3.6,91,0.00,,OVC043,0.24,28.00,VWS V14.01,2013-02-24 20:30:00,
2013-02-24 15:35:00,38.0,35.6,29.75,East,84,0.0,10.8,91,0.00,,OVC043,0.24,19.00,VWS V14.01,2013-02-24 20:35:00,
2013-02-24 15:40:00,37.7,35.6,29.75,East,84,0.0,10.8,92,0.00,,OVC043,0.24,18.00,VWS V14.01,2013-02-24 20:40:00,
2013-02-24 15:45:00,37.4,35.6,29.76,East,84,0.0,10.8,93,0.01,,OVC043,0.25,18.00,VWS V14.01,2013-02-24 20:45:00,
2013-02-24 15:50:00,37.2,35.4,29.76,East,84,3.6,10.8,93,0.01,,OVC043,0.25,16.00,VWS V14.01,2013-02-24 20:50:00,
2013-02-24 15:55:00,37.0,35.4,29.76,East,84,0.0,10.8,94,0.02,,OVC043,0.26,16.00,VWS V14.01,2013-02-24 20:55:00,
2013-02-24 16:00:00,36.8,35.2,29.76,East,84,7.2,10.8,94,0.03,,OVC043,0.27,16.00,VWS V14.01,2013-02-24 21:00:00,
2013-02-24 16:05:00,36.6,35.0,29.76,East,84,7.2,10.8,94,0.03,,OVC043,0.27,12.00,VWS V14.01,2013-02-24 21:05:00,
2013-02-24 16:10:00,36.3,34.7,29.77,East,84,7.2,14.4,94,0.05,,OVC043,0.29,11.00,VWS V14.01,2013-02-24 21:10:00,
2013-02-24 16:15:00,36.0,34.7,29.77,East,84,0.0,14.4,95,0.05,,OVC043,0.29,11.00,VWS V14.01,2013-02-24 21:15:00,
2013-02-24 16:20:00,35.8,34.5,29.77,East,84,0.0,14.4,95,0.06,,OVC043,0.30,11.00,VWS V14.01,2013-02-24 21:20:00,
2013-02-24 16:25:00,35.6,34.3,29.77,East,84,0.0,14.4,95,0.06,,OVC043,0.30,11.00,VWS V14.01,2013-02-24 21:25:00,
2013-02-24 16:30:00,35.4,34.1,29.77,East,84,0.0,14.4,95,0.07,,OVC043,0.31,11.00,VWS V14.01,2013-02-24 21:30:00,
2013-02-24 16:35:00,35.2,33.9,29.77,East,84,0.0,0.0,95,0.07,,OVC043,0.31,9.00,VWS V14.01,2013-02-24 21:35:00,
2013-02-24 16:40:00,35.1,33.8,29.77,East,84,0.0,3.6,95,0.07,,OVC043,0.31,9.00,VWS V14.01,2013-02-24 21:40:00,
2013-02-24 16:45:00,35.0,33.7,29.78,NW,311,10.8,14.4,95,0.07,,OVC043,0.31,7.00,VWS V14.01,2013-02-24 21:45:00,
2013-02-24 16:50:00,35.0,33.7,29.77,NNE,15,0.0,14.4,95,0.07,,OVC043,0.31,0.00,VWS V14.01,2013-02-24 21:50:00,
2013-02-24 16:55:00,34.9,33.6,29.78,East,96,0.0,14.4,95,0.07,,OVC043,0.31,0.00,VWS V14.01,2013-02-24 21:55:00,
2013-02-24 17:00:00,34.8,33.5,29.78,East,96,3.6,14.4,95,0.07,,OVC043,0.31,0.00,VWS V14.01,2013-02-24 22:00:00,
2013-02-24 17:05:00,34.6,33.3,29.78,East,96,0.0,7.2,95,0.04,,OVC033,0.31,0.00,VWS V14.01,2013-02-24 22:05:00,
2013-02-24 17:10:00,34.6,33.3,29.78,East,82,0.0,10.8,95,0.04,,OVC033,0.31,0.00,VWS V14.01,2013-02-24 22:10:00,
2013-02-24 17:15:00,34.5,33.2,29.78,East,82,0.0,10.8,95,0.04,,OVC033,0.31,0.00,VWS V14.01,2013-02-24 22:15:00,
2013-02-24 17:20:00,34.4,33.1,29.79,East,82,7.2,10.8,95,0.04,,OVC033,0.31,0.00,VWS V14.01,2013-02-24 22:20:00,
2013-02-24 17:25:00,34.4,33.1,29.79,East,80,0.0,10.8,95,0.04,,OVC033,0.31,0.00,VWS V14.01,2013-02-24 22:25:00,
2013-02-24 17:30:00,34.3,33.0,29.79,East,80,0.0,10.8,95,0.04,,OVC033,0.31,0.00,VWS V14.01,2013-02-24 22:30:00,
2013-02-24 17:35:00,34.2,32.9,29.79,East,80,0.0,7.2,95,0.00,,OVC033,0.31,0.00,VWS V14.01,2013-02-24 22:35:00,
2013-02-24 17:40:00,34.2,32.9,29.80,East,80,7.2,7.2,95,0.00,,OVC033,0.31,0.00,VWS V14.01,2013-02-24 22:40:00,
2013-02-24 17:45:00,34.1,32.8,29.81,East,80,0.0,7.2,95,0.00,,OVC033,0.31,0.00,VWS V14.01,2013-02-24 22:45:00,
2013-02-24 17:50:00,34.1,32.8,29.81,East,80,0.0,7.2,95,0.00,,OVC033,0.31,0.00,VWS V14.01,2013-02-24 22:50:00,
2013-02-24 17:55:00,34.0,32.7,29.81,East,80,0.0,7.2,95,0.00,,OVC033,0.31,0.00,VWS V14.01,2013-02-24 22:55:00,
2013-02-24 18:00:00,33.9,32.6,29.82,East,80,0.0,7.2,95,0.00,,OVC033,0.31,0.00,VWS V14.01,2013-02-24 23:00:00,
2013-02-24 18:05:00,33.9,32.6,29.82,East,80,0.0,3.6,95,0.00,,RA,0.31,0.00,VWS V14.01,2013-02-24 23:05:00,
2013-02-24 18:10:00,33.8,32.5,29.82,East,80,0.0,3.6,95,0.00,,RA,0.31,0.00,VWS V14.01,2013-02-24 23:10:00,
2013-02-24 18:15:00,33.7,32.4,29.82,East,80,0.0,3.6,95,0.00,,RA,0.31,0.00,VWS V14.01,2013-02-24 23:15:00,
2013-02-24 18:20:00,33.7,32.4,29.83,East,80,0.0,3.6,95,0.00,,RA,0.31,0.00,VWS V14.01,2013-02-24 23:20:00,
2013-02-24 18:25:00,33.6,32.3,29.83,East,80,0.0,3.6,95,0.00,,RA,0.31,0.00,VWS V14.01,2013-02-24 23:25:00,
2013-02-24 18:30:00,33.5,32.5,29.83,East,80,0.0,3.6,96,0.00,,RA,0.31,0.00,VWS V14.01,2013-02-24 23:30:00,
2013-02-24 18:35:00,33.5,32.2,29.83,East,80,0.0,0.0,95,0.00,,RA,0.31,0.00,VWS V14.01,2013-02-24 23:35:00,
2013-02-24 18:40:00,33.5,32.5,29.84,ENE,62,0.0,7.2,96,0.00,,RA,0.31,0.00,VWS V14.01,2013-02-24 23:40:00,
2013-02-24 18:45:00,33.4,32.4,29.84,ENE,62,0.0,7.2,96,0.00,,RA,0.31,0.00,VWS V14.01,2013-02-24 23:45:00,
2013-02-24 18:50:00,33.3,32.0,29.85,ENE,62,0.0,7.2,95,0.00,,RA,0.31,0.00,VWS V14.01,2013-02-24 23:50:00,
2013-02-24 18:55:00,33.2,31.9,29.84,ENE,65,7.2,10.8,95,0.00,,RA,0.31,0.00,VWS V14.01,2013-02-24 23:55:00,
2013-02-24 19:00:00,33.2,31.7,29.85,ENE,72,0.0,10.8,94,0.00,,RA,0.31,0.00,VWS V14.01,2013-02-25 00:00:00,
2013-02-24 19:05:00,33.3,31.5,29.85,ENE,72,7.2,7.2,93,0.00,,,0.31,0.00,VWS V14.01,2013-02-25 00:05:00,
2013-02-24 19:10:00,33.3,31.2,29.85,NE,50,7.2,10.8,92,0.00,,,0.31,0.00,VWS V14.01,2013-02-25 00:10:00,
2013-02-24 19:15:00,33.4,31.3,29.85,ENE,71,3.6,10.8,92,0.00,,,0.31,0.00,VWS V14.01,2013-02-25 00:15:00,
2013-02-24 19:20:00,33.4,31.3,29.86,ENE,69,7.2,10.8,92,0.00,,,0.31,0.00,VWS V14.01,2013-02-25 00:20:00,
2013-02-24 19:25:00,33.4,31.1,29.86,ENE,69,0.0,10.8,91,0.00,,,0.31,0.00,VWS V14.01,2013-02-25 00:25:00,
2013-02-24 19:30:00,33.4,31.1,29.86,ENE,69,0.0,10.8,91,0.00,,,0.31,0.00,VWS V14.01,2013-02-25 00:30:00,
2013-02-24 19:35:00,33.4,31.1,29.86,ENE,69,0.0,7.2,91,0.00,,,0.31,0.00,VWS V14.01,2013-02-25 00:35:00,
2013-02-24 19:40:00,33.4,31.1,29.86,ENE,69,3.6,7.2,91,0.00,,,0.31,0.00,VWS V14.01,2013-02-25 00:40:00,
2013-02-24 19:45:00,33.3,31.0,29.87,ENE,69,0.0,7.2,91,0.00,,,0.31,0.00,VWS V14.01,2013-02-25 00:45:00,
2013-02-24 19:50:00,33.3,31.0,29.86,ENE,69,0.0,10.8,91,0.00,,,0.31,0.00,VWS V14.01,2013-02-25 00:50:00,
2013-02-24 19:55:00,33.3,31.0,29.87,ENE,69,3.6,10.8,91,0.00,,,0.31,0.00,VWS V14.01,2013-02-25 00:55:00,
2013-02-24 20:00:00,33.3,31.0,29.87,East,81,7.2,10.8,91,0.00,,,0.31,0.00,VWS V14.01,2013-02-25 01:00:00,
2013-02-24 20:05:00,33.3,30.7,29.87,East,81,3.6,10.8,90,0.00,,,0.31,0.00,VWS V14.01,2013-02-25 01:05:00,
2013-02-24 20:10:00,33.3,30.7,29.87,NNW,333,7.2,10.8,90,0.00,,,0.31,0.00,VWS V14.01,2013-02-25 01:10:00,
2013-02-24 20:15:00,33.3,30.7,29.88,East,100,0.0,10.8,90,0.00,,,0.31,0.00,VWS V14.01,2013-02-25 01:15:00,
2013-02-24 20:20:00,33.3,31.0,29.88,ESE,102,3.6,10.8,91,0.00,,,0.31,0.00,VWS V14.01,2013-02-25 01:20:00,
2013-02-24 20:25:00,33.3,30.7,29.88,East,81,0.0,10.8,90,0.00,,,0.31,0.00,VWS V14.01,2013-02-25 01:25:00,
2013-02-24 20:30:00,33.3,31.0,29.88,SE,142,0.0,10.8,91,0.00,,,0.31,0.00,VWS V14.01,2013-02-25 01:30:00,
2013-02-24 20:35:00,33.2,30.9,29.88,SE,134,0.0,7.2,91,0.00,,,0.31,0.00,VWS V14.01,2013-02-25 01:35:00,
2013-02-24 20:40:00,33.2,30.9,29.88,East,100,3.6,14.4,91,0.00,,,0.31,0.00,VWS V14.01,2013-02-25 01:40:00,
2013-02-24 20:45:00,33.2,30.6,29.89,East,100,0.0,14.4,90,0.00,,,0.31,0.00,VWS V14.01,2013-02-25 01:45:00,
2013-02-24 20:50:00,33.3,30.7,29.88,ESE,105,0.0,14.4,90,0.00,,,0.31,0.00,VWS V14.01,2013-02-25 01:50:00,
2013-02-24 20:55:00,33.4,30.5,29.88,East,94,3.6,14.4,89,0.00,,,0.31,0.00,VWS V14.01,2013-02-25 01:55:00,
2013-02-24 21:00:00,33.4,30.5,29.88,ESE,112,7.2,14.4,89,0.00,,,0.31,0.00,VWS V14.01,2013-02-25 02:00:00,
2013-02-24 21:05:00,33.5,30.6,29.89,ESE,112,0.0,7.2,89,0.00,,,0.31,0.00,VWS V14.01,2013-02-25 02:05:00,
2013-02-24 21:10:00,33.4,30.5,29.89,ESE,112,0.0,10.8,89,0.00,,,0.31,0.00,VWS V14.01,2013-02-25 02:10:00,
2013-02-24 21:15:00,33.4,30.8,29.89,ESE,112,0.0,10.8,90,0.00,,,0.31,0.00,VWS V14.01,2013-02-25 02:15:00,
2013-02-24 21:20:00,33.3,31.0,29.89,ENE,57,0.0,10.8,91,0.00,,,0.31,0.00,VWS V14.01,2013-02-25 02:20:00,
2013-02-24 21:25:00,33.2,30.9,29.89,NNE,20,0.0,14.4,91,0.00,,,0.31,0.00,VWS V14.01,2013-02-25 02:25:00,
2013-02-24 21:30:00,33.1,31.0,29.89,North,355,3.6,14.4,92,0.00,,,0.31,0.00,VWS V14.01,2013-02-25 02:30:00,
2013-02-24 21:35:00,33.0,30.9,29.89,North,355,0.0,3.6,92,0.00,,,0.31,0.00,VWS V14.01,2013-02-25 02:35:00,
2013-02-24 21:40:00,32.9,30.8,29.89,West,270,0.0,7.2,92,0.00,,,0.31,0.00,VWS V14.01,2013-02-25 02:40:00,
2013-02-24 21:45:00,32.9,30.8,29.90,West,270,0.0,7.2,92,0.00,,,0.31,0.00,VWS V14.01,2013-02-25 02:45:00,
2013-02-24 21:50:00,32.8,31.0,29.90,West,270,0.0,7.2,93,0.00,,,0.31,0.00,VWS V14.01,2013-02-25 02:50:00,
2013-02-24 21:55:00,32.7,30.9,29.90,West,270,0.0,7.2,93,0.00,,,0.31,0.00,VWS V14.01,2013-02-25 02:55:00,
2013-02-24 22:00:00,32.6,30.8,29.90,West,270,0.0,7.2,93,0.00,,,0.31,0.00,VWS V14.01,2013-02-25 03:00:00,
2013-02-24 22:05:00,32.5,30.7,29.90,West,270,0.0,3.6,93,0.00,,,0.31,0.00,VWS V14.01,2013-02-25 03:05:00,
2013-02-24 22:10:00,32.4,30.9,29.90,West,270,0.0,3.6,94,0.00,,,0.31,0.00,VWS V14.01,2013-02-25 03:10:00,
2013-02-24 22:15:00,32.2,30.7,29.90,WNW,290,0.0,7.2,94,0.00,,,0.31,0.00,VWS V14.01,2013-02-25 03:15:00,
2013-02-24 22:20:00,32.1,30.6,29.90,WSW,255,0.0,10.8,94,0.00,,,0.31,0.00,VWS V14.01,2013-02-25 03:20:00,
2013-02-24 22:25:00,32.1,30.6,29.90,WSW,255,3.6,10.8,94,0.00,,,0.31,0.00,VWS V14.01,2013-02-25 03:25:00,
2013-02-24 22:30:00,32.0,30.5,29.90,WSW,255,3.6,10.8,94,0.00,,,0.31,0.00,VWS V14.01,2013-02-25 03:30:00,
2013-02-24 22:35:00,31.9,30.4,29.90,West,259,7.2,7.2,94,0.00,,,0.31,0.00,VWS V14.01,2013-02-25 03:35:00,
2013-02-24 22:40:00,31.9,30.4,29.90,West,259,0.0,7.2,94,0.00,,,0.31,0.00,VWS V14.01,2013-02-25 03:40:00,
2013-02-24 22:45:00,31.8,30.3,29.91,West,259,0.0,7.2,94,0.00,,,0.31,0.00,VWS V14.01,2013-02-25 03:45:00,
2013-02-24 22:50:00,31.8,30.5,29.91,West,259,3.6,7.2,95,0.00,,,0.31,0.00,VWS V14.01,2013-02-25 03:50:00,
2013-02-24 22:55:00,31.7,30.4,29.91,West,259,0.0,7.2,95,0.00,,,0.31,0.00,VWS V14.01,2013-02-25 03:55:00,
2013-02-24 23:00:00,31.8,30.5,29.91,West,259,0.0,7.2,95,0.00,,,0.31,0.00,VWS V14.01,2013-02-25 04:00:00,
2013-02-24 23:05:00,31.8,30.5,29.91,West,259,3.6,7.2,95,0.00,,OVC070,0.31,0.00,VWS V14.01,2013-02-25 04:05:00,
2013-02-24 23:10:00,31.9,30.6,29.91,ESE,109,0.0,7.2,95,0.00,,OVC070,0.31,0.00,VWS V14.01,2013-02-25 04:10:00,
2013-02-24 23:15:00,32.0,30.7,29.91,ESE,109,0.0,7.2,95,0.00,,OVC070,0.31,0.00,VWS V14.01,2013-02-25 04:15:00,
2013-02-24 23:20:00,32.0,30.7,29.91,ESE,109,0.0,7.2,95,0.00,,OVC070,0.31,0.00,VWS V14.01,2013-02-25 04:20:00,
2013-02-24 23:25:00,32.1,30.8,29.91,SSE,148,0.0,7.2,95,0.00,,OVC070,0.31,0.00,VWS V14.01,2013-02-25 04:25:00,
2013-02-24 23:30:00,32.1,30.8,29.92,SSE,148,0.0,7.2,95,0.00,,OVC070,0.31,0.00,VWS V14.01,2013-02-25 04:30:00,
2013-02-24 23:35:00,32.1,30.8,29.92,SSE,148,3.6,3.6,95,0.00,,OVC070,0.31,0.00,VWS V14.01,2013-02-25 04:35:00,
2013-02-24 23:40:00,32.2,30.7,29.93,ESE,107,0.0,7.2,94,0.00,,OVC070,0.31,0.00,VWS V14.01,2013-02-25 04:40:00,
2013-02-24 23:45:00,32.4,30.3,29.93,ESE,107,0.0,10.8,92,0.00,,OVC070,0.31,0.00,VWS V14.01,2013-02-25 04:45:00,
2013-02-24 23:50:00,32.7,30.4,29.93,ESE,107,7.2,10.8,91,0.00,,OVC070,0.31,0.00,VWS V14.01,2013-02-25 04:50:00,
2013-02-24 23:55:00,33.0,30.4,29.93,ESE,107,0.0,14.4,90,0.00,,OVC070,0.31,0.00,VWS V14.01,2013-02-25 04:55:00,